www.pogodaiklimat.ru

Погода и климат >> Архив погоды >> Россия >> Чечня >> Шатой


ПОГОДА в Шатое

  • Прогноз погоды в Шатое
  • Монитор погоды в Шатое

АРХИВ ПОГОДЫ в Шатое

Время (UTC), дата Ветер
(напр.,м/с)
 
Видим.   Явления Облачность Т
(С)
Тd
(С)
f
(%)
Тe
(С)
Тes
(С)
Комфортность P
(гПа)
Po
(гПа)
Тmin
(С)
Tmax
(С)
R
(мм)
R24
(мм)
S
(см)
12 13.05 З 2 20 км 10/10 600 м
[Cu med, cong]
+19.7 +17.6 88 +23 +23 комфорт 1017.9 952.6
15 13.05 СЗ 2 20 км 9/9 600 м
[Cu med, cong]
+16.3 +13.6 84 +16 +16 1018.3 952.2 +20.7 28
03 14.05 штиль 0 20 км ясно +7.1 +5.5 90 +6 +8 1022.2 953.8 +7.1
06 14.05 СВ 1 20 км 3/3 600 м
[Cu med, cong]
+13.5 +11.0 85 +14 +23 1019.0 952.3
09 14.05 С 5 20 км 6/6 600 м
[Cu med, cong]
+20.3 +16.7 80 +23 +27 комфорт 1016.3 951.2
12 14.05 20 км н/о +25.7 +21.0 75 +32 +35 очень
душно
1015.0 951.2
15 14.05 С 3 20 км 9/9 600 м
[Cu med, cong]
+20.3 +15.6 74 +23 +23 комфорт 1015.8 950.8 +25.7
03 15.05 штиль 0 20 км ясно +8.9 +5.6 80 +8 +10 1021.3 953.4 +8.9
06 15.05 С 2 20 км 4/1 600 м
[Cu med, cong Ci ing]
+16.7 +12.8 78 +17 +27 1018.2 952.2
09 15.05 С 3 20 км 3/3 600 м
[Cu med, cong]
+22.7 +17.9 74 +28 +39 душно 1015.5 951.0
12 15.05 С 5 20 км 4/4 600 м
[Cu med, cong]
+25.3 +19.8 72 +31 +35 очень
душно
1014.7 950.8
15 15.05 С 4 20 км ясно +14.6 +18.8 100 +13 +14 748.0 +25.3
03 16.05 штиль 0 20 км ясно +9.1 +5.3 77 +8 +10 1019.2 951.5 +9.1
06 16.05 штиль 0 20 км 1/1 600 м
[Cu med, cong]
+16.5 +12.1 75 +16 +31 опасность
простуды
1016.1 950.2
09 16.05 С 7 20 км 4/4 600 м
[Cu med, cong]
+24.9 +19.5 72 +30 +33 душно 1012.7 948.8
12 16.05 С 5 20 км 4/4 600 м
[Cu med, cong]
+26.5 +19.9 67 +32 +36 очень
душно
1012.1 948.6
15 16.05 С 2 20 км 1/1 600 м
[Cu med, cong]
+26.7 +18.8 62 +32 +33 очень
душно
1011.5 948.1 +26.7
03 17.05 штиль 0 20 км ясно +8.3 +3.7 73 +8 +9 1016.9 949.1 +8.3
06 17.05 СВ 3 20 км ясно +17.5 +12.5 72 +18 +27 1012.9 947.5
09 17.05 С 7 20 км 3/0
[Ci ing]
+25.7 +19.5 69 +31 +36 очень
душно
1009.4 945.9
12 17.05 С 7 20 км 1/1 600 м
[Cu med, cong]
+28.5 +21.2 65 +36 +39 очень
душно
1008.0 945.2
15 17.05 СВ 7 20 км 3/3 600 м
[Cu med, cong]
+26.7 +18.9 62 +32 +32 очень
душно
1008.7 945.5 +28.5
03 18.05 штиль 0 20 км ясно +11.1 +5.7 69 +11 +12 1012.1 945.3 +11.1
06 18.05 СВ 7 20 км ясно +21.5 +15.3 68 +25 +28 комфорт 1007.5 943.3
09 18.05 СВ 8 20 км 4/3 600 м
[Cu med, cong Ci ing]
+24.4 +17.2 64 +28 +31 душно 1006.8 943.2
12 18.05 С 4 20 км 9/8 600 м
[Cu med, cong Ci ing]
+23.3 +16.3 65 +28 +29 душно 1007.2 943.4
15 18.05 штиль 0 20 км 9/8 600 м
[Cu med, cong Ci ing]
+20.3 +13.9 67 +22 +23 комфорт 1007.1 942.6 +26.7
03 19.05 штиль 0 20 км 9/9 600 м
[]
+10.5 +5.7 72 +10 +10 1009.1 942.4 +10.5
06 19.05 С 3 20 км 9/3 600 м
[Cu med, cong Ci ing]
+19.7 +14.6 72 +22 +28 комфорт 1007.3 942.7
09 19.05 СВ 9 20 км 9/6 600 м
[Cu med, cong Ci ing]
+23.7 +17.8 70 +28 +29 душно 1006.5 942.8
12 19.05 СВ 7 20 км 9/8 600 м
[Cu med, cong Ci ing]
+21.8 +16.2 70 +26 +26 душно 1007.5 943.3
15 19.05 штиль 0 20 км 10/10 600 м
[Cu med, cong]
+12.5 +14.2 100 +12 +12 1011.3 944.9 +23.7
03 20.05 штиль 0 20 км 10/10 600 м
[Sc]
+14.1 +10.9 81 +14 +14 1013.6 947.4 +14.1 1
06 20.05 штиль 0 20 км 9/9 600 м
[Cu med, cong]
+18.3 +14.9 81 +19 +20 1013.1 947.8
09 20.05 С 2 20 км 10/10 600 м
[Cu med, cong]
+16.2 +13.5 84 +16 +16 1016.0 950.1

 

Местоположение метеостанции Шатой (Чечня, Россия): широта 42.88 долгота 45.68 высота над уровнем моря 568 м.

В архиве по умолчанию представлена погода в Шатое за последнюю неделю. Архивные данные за месяц целиком и за предыдущие месяцы, начиная с января 2011 года, Вы можете получить, выбрав интересующий диапазон дат из раскрывающегося списка и нажав кнопку "Ввод!".


*Определитесь, кто Вы:
робот инопланетянин человек

Внимание! Время в таблицах - всемирное. Для получения местного времени необходимо прибавить поправку, которая равна 3 ч.

Смотрите также архив погоды в соседних городах и на ближайших метеорологических станциях:

Погода в Грозном (Чечня, Россия) (41 км)
Погода в Гудермесе (Чечня, Россия) (63 км)
Погода в Сулаке (высокогорная) (Дагестан, Россия) (73 км)
Погода в Назрани (Ингушетия, Россия) (74 км)
Погода в Владикавказе (Северная Осетия, Россия) (83 км)
Погода в Хасавюрте (Дагестан, Россия) (84 км)
Погода в Хунзахе (Дагестан, Россия) (90 км)
Погода в Наурской (Чечня, Россия) (90 км)
Погода в Шелковской (Чечня, Россия) (91 км)
Погода в Пасанаури (Грузия) (100 км)

Пояснения к столбцам:

Ветер - указаны скорость ветра в м/с - средняя за 10 мин, порывы в срок и между сроками (в фигурных скобках) и направление, откуда дует ветер: С - северный, СВ - северо-восточный, В - восточный, ЮВ - юго-восточный, Ю - южный, ЮЗ - юго-западный, З - западный, СЗ - северо-западный.
Видимость - горизонтальная дальность видимости в метрах или километрах. При видимости от 1 до 10 км при отсутствии осадков обычно наблюдается дымка, при ухудшении видимости до 1 км и менее - туман. В сухую погоду видимость может ухудшаться дымом, пылью или мглою.
Явления - указаны атмосферные явления, наблюдавшиеся в срок или в последний час перед сроком; фигурными скобками обозначены явления, наблюдавшиеся между сроками (за 1-3 часа до срока); квадратными скобками обозначены град или гололедные отложения с указанием их диаметра в мм.
Облачность - указаны через наклонную черту общая и нижняя облачность в баллах и высота нижней границы облаков в метрах; квадратными скобками обозначены формы облаков: Ci - перистые, Cs - перисто-слоистые, Cc - перисто-кучевые, Ac - высококучевые, As - высокослоистые, Sc - слоисто-кучевые, Ns - слоисто-дождевые, Cu - кучевые, Cb - кучево-дождевые. Подробнее классификацию облаков см. в Атласе облаков (PDF).
T - Температура воздуха - температура, измеренная на высоте 2 м над землей.
Td - Температура точки росы - температура, при понижении до которой содержащийся в воздухе водяной пар достигнет насыщения.
f - Относительная влажность воздуха - влажноcть воздуха, измеренная на высоте 2 м над землей.
Te - Эффективная температура - температура, которую ощущает одетый по сезону человек в тени. Характеристика душности погоды. При расчете учитывается влияние влажности воздуха и скорости ветра на теплоощущения человека.
Tes - Эффективная температура на солнце - температура, которую ощущает человек, с поправкой на солнечный нагрев. Характеристика знойности погоды. Зависит от высоты солнца над горизонтом, облачности и скорости ветра. Ночью, в пасмурную погоду, а также при ветре 12 м/с и более поправка равна нулю.
P - Атмосферное давление - приведенное к уровню моря атмосферное давление.
Po - Атмосферное давление - измеренное на уровне метеостанции атмосферное давление.
Tmin - Минимальная температура - минимум температуры воздуха на высоте 2 м над землей.
Tmax - Максимальная температура - максимум температуры воздуха на высоте 2 м над землей.
R - Количество осадков - Количество выпавших осадков за период времени, мм. При наведении курсора мыши на число - период времени, за который выпало указанное количество осадков.
R24 - Количество осадков - Количество выпавших осадков за 24 часа, мм.
S - Снежный покров - Высота снежного покрова, см. При наведении курсора мыши на число - состояние снежного покрова и степень покрытия местности в баллах.